Total_Precipitation_Accumulation
2.72 2.42 3.74 3.85 3.45 3.21 3.27 3.41 3.61 3.63 3.56 3.39 3.29 3.10 2.93 2.67 2.56 2.65 2.54 2.59 2.61 2.64 2.71 2.79 2.77 2.93 2.86 2.64 2.58 2.66 2.69 2.67 2.74 2.66 2.39 2.47 2.78 2.80 2.67 3.01 3.83 4.45 4.17
1.91 2.05 3.36 3.62 3.30 3.08 3.08 3.39 3.63 3.63 3.65 3.61 3.29 2.97 2.76 2.46 2.31 2.40 2.44 2.44 2.41 2.42 2.48 2.65 2.85 3.25 3.14 2.85 2.76 2.82 2.72 2.78 2.81 2.86 2.88 2.82 2.91 2.96 2.80 2.95 3.48 3.84 3.64
1.68 1.78 2.52 3.45 3.36 3.14 3.22 3.36 3.40 3.37 3.30 3.19 3.01 2.77 2.65 2.41 2.34 2.39 2.43 2.45 2.36 2.31 2.24 2.42 2.74 3.05 3.21 3.01 2.84 2.77 2.64 2.68 2.69 2.94 3.58 4.07 3.26 3.04 3.02 2.92 3.20 3.14 3.10
1.48 1.56 1.94 3.23 3.33 3.19 3.27 3.31 3.17 3.05 2.96 2.75 2.65 2.61 2.54 2.40 2.25 2.27 2.39 2.51 2.39 2.33 2.27 2.35 2.63 2.80 2.96 2.93 2.77 2.55 2.32 2.41 2.63 2.80 3.36 3.96 3.69 3.45 3.42 3.30 3.23 2.92 2.97
1.39 1.55 2.12 3.13 3.20 3.14 3.07 3.07 3.10 2.92 2.77 2.53 2.32 2.37 2.33 2.29 2.19 2.27 2.39 2.31 2.29 2.30 2.13 2.15 2.40 2.61 2.83 2.81 2.70 2.56 2.36 2.39 2.60 2.24 2.58 3.35 4.07 4.02 3.45 3.36 3.36 3.04 3.01
1.43 1.55 2.12 2.87 3.00 3.00 2.95 2.86 2.80 2.64 2.49 2.39 2.22 2.25 2.29 2.28 2.21 2.20 2.15 2.10 2.18 2.24 2.14 2.05 2.16 2.48 2.80 2.72 2.67 2.76 2.79 2.64 2.28 2.14 2.58 3.26 4.00 4.09 3.57 3.41 3.22 3.16 3.09
1.52 1.51 1.90 2.62 2.79 2.83 2.77 2.61 2.54 2.48 2.33 2.25 2.16 2.04 2.07 2.17 2.22 2.19 2.21 2.22 2.18 2.19 2.19 2.15 2.22 2.31 2.55 2.61 2.72 2.74 2.63 2.32 2.00 2.26 2.48 3.04 3.54 3.94 3.59 3.61 3.52 3.46 3.31
1.56 1.50 1.68 2.30 2.58 2.63 2.56 2.52 2.47 2.35 2.24 2.11 1.94 1.89 1.97 2.09 2.12 2.03 2.01 2.07 2.05 2.04 2.09 2.05 2.10 2.08 2.15 2.35 2.60 2.79 2.65 1.99 1.67 1.88 2.11 2.78 3.73 3.95 3.51 3.64 3.83 3.83 3.72
1.80 1.67 1.57 1.72 1.95 2.23 2.48 2.50 2.60 2.57 2.45 2.23 1.98 1.91 2.05 2.12 2.02 1.90 1.99 2.07 2.10 2.12 2.18 2.17 2.17 2.15 2.17 2.40 2.61 2.78 2.57 1.91 1.79 1.92 1.82 2.76 3.96 3.73 3.24 3.23 3.56 3.71 3.78
1.68 1.64 1.54 1.56 1.64 1.77 2.06 2.44 2.75 2.86 2.88 2.52 2.11 2.00 1.93 1.90 1.91 1.96 2.00 2.12 2.28 2.40 2.51 2.51 2.39 2.24 2.27 2.38 2.49 2.45 2.14 1.73 1.80 1.86 2.27 2.91 3.92 3.73 3.09 2.81 3.08 3.21 3.36
1.30 1.33 1.36 1.46 1.59 1.65 1.78 1.98 2.49 2.77 2.85 2.42 1.94 1.93 1.78 1.63 1.63 1.83 1.93 2.39 2.52 2.59 2.79 2.86 2.66 2.39 2.18 2.11 2.17 2.14 1.79 1.53 1.67 2.01 2.53 3.32 3.83 3.71 3.14 2.83 2.68 2.82 2.98
1.12 1.02 1.01 1.01 1.13 1.34 1.45 1.82 2.24 2.32 2.39 2.01 1.76 1.73 1.67 1.76 1.72 1.50 1.74 2.30 2.56 2.59 2.43 2.43 2.48 2.16 1.78 1.53 1.52 1.56 1.54 1.51 1.73 2.03 2.65 3.74 4.06 3.88 3.33 2.87 2.59 2.67 2.76
0.83 0.80 0.79 0.86 0.88 1.06 1.44 1.79 2.08 2.26 2.32 2.25 2.16 1.89 1.84 1.74 1.56 1.44 1.52 1.65 1.78 1.85 1.74 1.76 1.81 1.63 1.55 1.42 1.37 1.35 1.32 1.49 1.95 2.19 2.89 3.88 4.31 4.12 3.66 3.20 2.84 2.88 3.02
0.83 0.84 0.75 0.70 0.78 0.97 1.16 1.42 1.81 2.07 2.14 2.10 2.00 1.65 1.65 1.69 1.54 1.51 1.65 1.77 1.76 1.79 1.91 1.85 1.84 1.72 1.55 1.34 1.32 1.39 1.39 1.44 1.76 2.11 2.77 3.43 4.19 4.54 4.13 3.61 3.27 3.22 3.21
0.97 1.04 0.96 0.79 0.79 0.91 1.08 1.17 1.39 1.65 1.72 1.99 1.99 1.55 1.37 1.42 1.53 1.55 1.47 1.70 1.81 1.87 1.94 1.95 1.86 1.74 1.69 1.51 1.51 1.55 1.59 1.45 1.59 1.77 2.29 2.79 3.44 4.34 4.52 4.14 3.86 3.77 3.54
0.83 0.94 0.98 0.97 0.99 0.99 1.02 1.07 1.17 1.26 1.37 1.48 1.47 1.27 1.19 1.21 1.34 1.56 1.46 1.48 1.62 1.84 1.98 1.96 1.89 1.94 1.90 1.69 1.68 1.73 1.70 1.64 1.67 1.74 1.98 2.09 2.35 3.08 3.86 4.28 4.40 4.23 3.85
0.71 0.80 0.89 0.93 1.00 1.06 1.16 1.21 1.16 1.21 1.34 1.33 1.25 1.22 1.22 1.17 1.27 1.51 1.45 1.36 1.40 1.57 1.75 1.99 2.07 2.09 1.88 1.81 1.83 1.82 1.70 1.68 1.69 1.87 1.94 2.03 1.97 2.16 2.79 3.35 3.91 4.13 4.22
0.74 0.75 0.80 0.75 0.87 1.01 1.18 1.29 1.32 1.30 1.38 1.34 1.18 1.10 1.06 1.05 1.07 1.30 1.40 1.33 1.35 1.55 1.80 2.08 2.29 2.35 2.15 2.11 2.16 2.06 1.81 1.77 1.72 1.84 1.91 2.04 2.17 1.94 2.00 2.22 2.72 3.38 3.99
0.81 0.75 0.76 0.79 0.82 0.86 1.01 1.17 1.23 1.24 1.31 1.28 1.19 1.14 1.04 0.98 1.00 1.25 1.49 1.52 1.52 1.72 1.87 1.87 2.15 2.32 2.42 2.33 2.16 2.04 1.96 1.94 1.92 1.86 1.99 2.01 2.12 2.05 1.88 1.64 1.75 2.30 3.09
0.95 0.91 0.92 0.87 0.81 0.82 0.86 0.99 1.11 1.12 1.17 1.24 1.18 1.18 1.18 1.21 1.23 1.45 1.71 1.73 1.80 1.89 2.02 2.25 2.55 2.55 2.48 2.51 2.24 2.00 1.88 1.91 2.00 2.11 2.07 2.06 2.15 1.97 1.79 1.65 1.62 1.64 2.28
0.88 0.84 0.87 0.91 0.84 0.78 0.74 0.82 0.94 1.02 1.16 1.26 1.32 1.39 1.38 1.36 1.42 1.65 1.84 2.05 2.18 2.09 2.13 2.42 2.75 2.85 2.61 2.46 2.58 2.47 2.27 2.05 2.06 2.04 2.02 2.08 2.14 2.08 1.98 1.93 1.88 1.76 1.90
0.72 0.71 0.76 0.81 0.78 0.72 0.67 0.73 0.86 1.02 1.15 1.30 1.49 1.72 1.64 1.50 1.51 1.53 1.81 1.99 2.08 2.23 2.27 2.38 2.72 3.06 2.79 2.50 2.79 3.26 3.07 2.84 2.27 1.91 2.04 2.07 2.18 2.19 2.13 2.00 2.02 1.93 1.93
0.61 0.68 0.72 0.75 0.76 0.78 0.86 1.04 1.31 1.61 1.77 1.82 1.86 2.09 2.10 1.93 1.85 1.81 1.86 2.00 2.09 2.30 2.47 2.49 2.57 2.94 2.97 2.70 2.68 3.35 3.42 3.28 3.01 2.42 2.04 2.10 2.26 2.35 2.38 2.29 2.14 2.08 1.97
0.58 0.69 0.76 0.77 0.86 0.87 1.02 1.35 1.78 2.12 2.32 2.28 2.33 2.38 2.47 2.35 2.16 2.17 2.19 2.30 2.24 2.24 2.35 2.33 2.33 2.60 2.96 2.99 2.77 2.60 2.60 2.80 3.27 3.03 2.41 2.23 2.25 2.25 2.39 2.25 2.25 2.29 2.20
0.64 0.71 0.84 0.94 1.10 1.28 1.38 1.58 1.88 2.03 2.10 2.25 2.43 2.67 2.84 2.87 2.81 2.77 2.68 2.52 2.31 2.26 2.33 2.38 2.40 2.52 2.65 2.82 2.80 2.60 2.53 2.50 2.49 2.85 2.85 2.57 2.33 2.19 2.26 2.30 2.33 2.35 2.34
0.80 0.90 0.96 1.15 1.29 1.35 1.49 1.61 1.72 1.80 1.90 2.11 2.29 2.54 2.73 2.77 2.82 2.76 2.56 2.28 2.12 2.08 2.17 2.34 2.36 2.45 2.46 2.55 2.52 2.36 2.35 2.39 2.44 2.68 2.71 2.65 2.60 2.26 2.07 2.10 2.16 2.23 2.15